Location: Newark
(7.0858°N, 171.3717°E)
Time: 21:39:17
(UTC+00:00)

N. Korean satellite - Pass Details

Date: 05 October 2021
Orbit: 450 x 495 km, 97.3° (Epoch: 15 October)

Event Time Altitude Azimuth Distance (km) Brightness Sun altitude
Rises 17:48:13 0° 360° (N) 2,562 10.2 -9.2°
Reaches altitude 10° 17:50:21 10° 353° (N) 1,684 9.2 -8.6°
Maximum altitude 17:53:48 42° 282° (WNW) 718 7.0 -7.8°
Drops below altitude 10° 17:57:15 10° 210° (SSW) 1,688 9.1 -6.9°
Sets 17:59:24 0° 203° (SSW) 2,569 10.0 -6.4°
